Flag Weather past 2 weeks in Skopje, Macedonia, Republic of

Now
48 °F

Overcast.


Feels Like: 48 °F
Forecast: 38 / 58 °F
Wind: No wind

Location: Skopje-Petrovec

Current Time: Oct 31, 2014 at 6:48:28 AM

Latest Report: Oct 31, 2014 at 6:30 AM


Visibility: N/A

Pressure: 30.24 "Hg

Humidity: 71%

Dew point: 39 °F

Location of SkopjeLocation

Historic Weather in Skopje — Graph

°F

Skopje temperature yesterday

Maximum temperature yesterday: 57 °F (at 12:30 PM)
Minimum temperature yesterday: 36 °F (at 2:00 AM)
Average temperature yesterday: 46 °F

Past Weeks' High & Low Weather Summary

 TemperatureHumidityPressure
High77 °F (Oct 17, 3:30 PM)100% (Oct 16, 8:00 AM)30.39 "Hg (Oct 16, 8:00 AM)
Low34 °F (Oct 24, 3:00 AM)35% (Oct 19, 3:30 PM)29.50 "Hg (Oct 22, 5:30 PM)
Average51 °F78%30.08 "Hg
* Reported Oct 16 7:00 AM — Oct 31 6:00 AM, Skopje, Weather by CustomWeather, © 2014

Note: Actual official high and low records may vary slightly from our data, if they occured in-between our weather recording intervals... More about our weather records

Advertising

Skopje weather history for previous 24 hours

 ConditionsComfort  
Time TempWeatherWind HumidityBarometerVisibility
6:00 AM
Oct 31
48 °FOvercast.No wind71%30.24 "HgN/A
5:30 AM46 °FOvercast.No wind76%30.24 "HgN/A
5:00 AM46 °FOvercast.No wind76%30.24 "HgN/A
4:30 AM46 °FOvercast.No wind76%30.24 "HgN/A
4:00 AM46 °FOvercast.No wind76%30.24 "HgN/A
3:00 AM48 °FOvercast.No wind71%30.24 "HgN/A
2:30 AM48 °FOvercast.2 mph71%30.24 "HgN/A
2:00 AM48 °FOvercast.7 mph71%30.24 "HgN/A
1:00 AM48 °FOvercast.7 mph71%30.24 "HgN/A
12:30 AM48 °FOvercast.5 mph76%30.24 "HgN/A
12:00 AM48 °FOvercast.5 mph76%30.24 "HgN/A
11:30 PM
Oct 30
48 °FOvercast.5 mph76%30.24 "HgN/A
11:00 PM48 °FOvercast.9 mph76%30.21 "HgN/A
10:00 PM48 °FOvercast.9 mph76%30.21 "HgN/A
9:30 PM48 °FOvercast.7 mph76%30.21 "HgN/A
9:00 PM48 °FOvercast.9 mph76%30.21 "HgN/A
8:30 PM48 °FOvercast.9 mph76%30.21 "HgN/A
8:00 PM48 °FOvercast.8 mph76%30.21 "HgN/A
7:30 PM48 °FOvercast.13 mph76%30.21 "HgN/A
7:00 PM48 °FOvercast.12 mph76%30.21 "HgN/A
6:30 PM48 °FOvercast.15 mph76%30.18 "HgN/A
6:00 PM48 °FPartly cloudy.18 mph76%30.18 "HgN/A
5:30 PM48 °FPassing clouds.16 mph76%30.18 "HgN/A
5:00 PM48 °FPartly cloudy.18 mph76%30.15 "HgN/A
4:30 PM50 °FPassing clouds.16 mph71%30.15 "HgN/A
4:00 PM52 °FScattered clouds.16 mph72%30.15 "HgN/A
3:30 PM54 °FPartly sunny.16 mph67%30.15 "HgN/A
3:00 PM54 °FSunny.15 mph67%30.12 "Hg10 mi
2:30 PM55 °FSunny.15 mph63%30.12 "Hg10 mi
2:00 PM54 °FSunny.14 mph67%30.15 "Hg10 mi
1:30 PM55 °FSunny.7 mph63%30.15 "Hg10 mi
1:00 PM57 °FSunny.5 mph59%30.15 "Hg10 mi
12:30 PM57 °FSunny.2 mph59%30.15 "Hg10 mi
12:00 PM55 °FPassing clouds.3 mph63%30.15 "HgN/A
11:30 AM54 °FSunny.7 mph67%30.15 "Hg10 mi
11:00 AM52 °FSunny.9 mph72%30.18 "Hg10 mi
10:30 AM52 °FSunny.5 mph72%30.18 "Hg10 mi
10:00 AM50 °FSunny.2 mph76%30.18 "Hg10 mi
9:30 AM48 °FClear.No wind82%30.18 "Hg6 mi
9:00 AM46 °FPassing clouds.2 mph82%30.18 "Hg5 mi
8:30 AM43 °FPassing clouds.2 mph93%30.18 "Hg6 mi
8:00 AM41 °FPassing clouds.2 mph93%30.18 "Hg4 mi
7:30 AM39 °FPassing clouds.No wind93%30.18 "HgN/A
7:00 AM39 °FPassing clouds.No wind93%30.18 "HgN/A
6:30 AM36 °FScattered clouds.2 mph100%30.18 "HgN/A
6:00 AM36 °FPassing clouds.2 mph100%30.15 "HgN/A
Weather by CustomWeather, © 2014

See weather overviewHow to use our weather pages